Time,TemperatureF,DewpointF,PressureIn,WindDirection,WindDirectionDegrees,WindSpeedMPH,WindSpeedGustMPH,Humidity,HourlyPrecipIn,Conditions,Clouds,dailyrainin,SoftwareType,DateUTC
2013-08-18 00:12:00,72.0,65.0,29.82,South,171,7.0,16.0,79,0.00,,,0.00,,2013-08-18 05:12:00,
2013-08-18 00:22:00,72.0,65.0,29.82,SSW,195,8.0,15.0,79,0.00,,,0.00,,2013-08-18 05:22:00,
2013-08-18 00:42:00,72.0,65.0,29.82,South,190,7.0,14.0,80,0.00,,,0.00,,2013-08-18 05:42:00,
2013-08-18 00:52:00,71.0,65.0,29.81,SW,219,8.0,13.0,81,0.00,,,0.00,,2013-08-18 05:52:00,
2013-08-18 01:11:00,71.0,65.0,29.81,South,179,9.0,15.0,82,0.00,,,0.00,,2013-08-18 06:11:00,
2013-08-18 01:21:00,71.0,66.0,29.82,SSW,203,8.0,15.0,83,0.00,,,0.00,,2013-08-18 06:21:00,
2013-08-18 01:42:00,71.0,66.0,29.82,South,181,9.0,15.0,83,0.00,,,0.00,,2013-08-18 06:42:00,
2013-08-18 01:52:00,71.0,66.0,29.82,SSW,200,8.0,15.0,83,0.00,,,0.00,,2013-08-18 06:52:00,
2013-08-18 02:11:00,71.0,66.0,29.82,SSW,212,8.0,14.0,84,0.00,,,0.00,,2013-08-18 07:11:00,
2013-08-18 02:22:00,70.0,65.0,29.82,SSW,194,9.0,14.0,85,0.00,,,0.00,,2013-08-18 07:22:00,
2013-08-18 02:42:00,70.0,66.0,29.82,SSW,203,9.0,15.0,86,0.00,,,0.00,,2013-08-18 07:42:00,
2013-08-18 02:52:00,69.0,65.0,29.81,South,191,8.0,13.0,86,0.00,,,0.00,,2013-08-18 07:52:00,
2013-08-18 03:12:00,69.0,65.0,29.81,SSE,160,9.0,15.0,87,0.00,,,0.00,,2013-08-18 08:12:00,
2013-08-18 03:21:00,69.0,65.0,29.81,South,191,9.0,14.0,88,0.00,,,0.00,,2013-08-18 08:21:00,
2013-08-18 03:52:00,68.0,64.0,29.81,SSW,203,7.0,15.0,88,0.00,,,0.00,,2013-08-18 08:52:00,
2013-08-18 04:11:00,68.0,65.0,29.81,SSW,194,7.0,13.0,89,0.00,,,0.00,,2013-08-18 09:11:00,
2013-08-18 04:21:00,67.0,64.0,29.81,SSE,163,7.0,13.0,90,0.00,,,0.00,,2013-08-18 09:21:00,
2013-08-18 04:43:00,67.0,64.0,29.81,SSE,155,7.0,12.0,90,0.00,,,0.00,,2013-08-18 09:43:00,
2013-08-18 04:53:00,67.0,64.0,29.80,South,186,9.0,15.0,90,0.00,,,0.00,,2013-08-18 09:53:00,
2013-08-18 05:13:00,67.0,64.0,29.80,SSE,160,7.0,13.0,90,0.00,,,0.00,,2013-08-18 10:13:00,
2013-08-18 05:22:00,67.0,64.0,29.80,SSE,158,8.0,16.0,90,0.00,,,0.00,,2013-08-18 10:22:00,
2013-08-18 05:42:00,67.0,64.0,29.80,South,185,6.0,14.0,90,0.00,,,0.00,,2013-08-18 10:42:00,
2013-08-18 05:52:00,66.0,63.0,29.80,SSW,200,4.0,10.0,91,0.00,,,0.00,,2013-08-18 10:52:00,
2013-08-18 06:11:00,66.0,63.0,29.80,South,187,5.0,13.0,91,0.00,,,0.00,,2013-08-18 11:11:00,
2013-08-18 06:22:00,66.0,63.0,29.80,SSW,210,5.0,11.0,91,0.00,,,0.00,,2013-08-18 11:22:00,
2013-08-18 06:42:00,65.0,62.0,29.80,SSE,166,6.0,10.0,91,0.00,,,0.00,,2013-08-18 11:42:00,
2013-08-18 06:52:00,65.0,63.0,29.80,SSW,206,7.0,13.0,92,0.00,,,0.00,,2013-08-18 11:52:00,
2013-08-18 07:11:00,65.0,63.0,29.80,South,191,7.0,13.0,92,0.00,,,0.00,,2013-08-18 12:11:00,
2013-08-18 07:21:00,65.0,63.0,29.80,South,181,9.0,14.0,92,0.00,,,0.00,,2013-08-18 12:21:00,
2013-08-18 07:42:00,65.0,63.0,29.80,South,179,7.0,14.0,92,0.00,,,0.00,,2013-08-18 12:42:00,
2013-08-18 07:52:00,65.0,63.0,29.80,South,187,8.0,15.0,92,0.00,,,0.00,,2013-08-18 12:52:00,
2013-08-18 08:11:00,65.0,63.0,29.79,SW,214,8.0,16.0,92,0.00,,,0.00,,2013-08-18 13:11:00,
2013-08-18 08:21:00,65.0,62.0,29.78,South,187,10.0,17.0,91,0.00,,,0.00,,2013-08-18 13:21:00,
2013-08-18 08:42:00,66.0,63.0,29.79,WSW,240,10.0,16.0,90,0.00,,,0.00,,2013-08-18 13:42:00,
2013-08-18 08:52:00,66.0,63.0,29.78,SSW,211,10.0,17.0,89,0.00,,,0.00,,2013-08-18 13:52:00,
2013-08-18 09:11:00,67.0,63.0,29.78,South,183,11.0,18.0,87,0.00,,,0.00,,2013-08-18 14:11:00,
2013-08-18 09:21:00,68.0,64.0,29.78,SSW,210,11.0,21.0,86,0.00,,,0.00,,2013-08-18 14:21:00,
2013-08-18 09:42:00,69.0,64.0,29.78,SW,217,11.0,18.0,85,0.00,,,0.00,,2013-08-18 14:42:00,
2013-08-18 09:53:00,69.0,64.0,29.78,SSW,194,10.0,18.0,84,0.00,,,0.00,,2013-08-18 14:53:00,
2013-08-18 10:11:00,70.0,65.0,29.77,SSW,193,12.0,19.0,84,0.00,,,0.00,,2013-08-18 15:11:00,
2013-08-18 10:22:00,71.0,65.0,29.76,South,179,11.0,18.0,82,0.00,,,0.00,,2013-08-18 15:22:00,
2013-08-18 10:43:00,72.0,66.0,29.76,SSW,195,10.0,21.0,81,0.00,,,0.00,,2013-08-18 15:43:00,
2013-08-18 10:53:00,73.0,66.0,29.75,SW,216,11.0,18.0,79,0.00,,,0.00,,2013-08-18 15:53:00,
2013-08-18 11:13:00,74.0,67.0,29.75,SW,229,11.0,19.0,78,0.00,,,0.00,,2013-08-18 16:13:00,
2013-08-18 11:23:00,75.0,67.0,29.73,SSW,210,13.0,23.0,77,0.00,,,0.00,,2013-08-18 16:23:00,
2013-08-18 11:42:00,75.0,67.0,29.73,SW,218,13.0,22.0,76,0.00,,,0.00,,2013-08-18 16:42:00,
2013-08-18 11:52:00,76.0,68.0,29.73,SSW,203,10.0,21.0,76,0.00,,,0.00,,2013-08-18 16:52:00,
2013-08-18 12:13:00,77.0,68.0,29.74,South,186,11.0,20.0,74,0.00,,,0.00,,2013-08-18 17:13:00,
2013-08-18 12:23:00,78.0,68.0,29.75,SW,219,9.0,14.0,71,0.00,,,0.00,,2013-08-18 17:23:00,
2013-08-18 12:42:00,79.0,69.0,29.75,SSW,210,7.0,18.0,71,0.00,,,0.00,,2013-08-18 17:42:00,
2013-08-18 12:52:00,79.0,69.0,29.75,WSW,243,9.0,15.0,71,0.00,,,0.00,,2013-08-18 17:52:00,
2013-08-18 13:12:00,79.0,69.0,29.75,SW,231,8.0,14.0,71,0.00,,,0.00,,2013-08-18 18:12:00,
2013-08-18 13:21:00,79.0,69.0,29.75,WSW,257,10.0,15.0,71,0.00,,,0.00,,2013-08-18 18:21:00,
2013-08-18 13:42:00,80.0,69.0,29.76,WSW,246,10.0,15.0,69,0.00,,,0.00,,2013-08-18 18:42:00,
2013-08-18 13:52:00,81.0,69.0,29.76,SW,235,9.0,14.0,68,0.00,,,0.00,,2013-08-18 18:52:00,
2013-08-18 14:11:00,81.0,69.0,29.75,WSW,237,8.0,14.0,68,0.00,,,0.00,,2013-08-18 19:11:00,
2013-08-18 14:22:00,82.0,70.0,29.75,WSW,241,9.0,14.0,68,0.00,,,0.00,,2013-08-18 19:22:00,
2013-08-18 14:42:00,82.0,71.0,29.75,SW,231,8.0,14.0,69,0.00,,,0.00,,2013-08-18 19:42:00,
2013-08-18 14:52:00,82.0,70.0,29.75,West,259,8.0,15.0,68,0.00,,,0.00,,2013-08-18 19:52:00,
2013-08-18 15:12:00,82.0,70.0,29.75,WSW,252,8.0,14.0,68,0.00,,,0.00,,2013-08-18 20:12:00,
2013-08-18 15:22:00,83.0,70.0,29.73,WSW,248,9.0,13.0,66,0.00,,,0.00,,2013-08-18 20:22:00,
2013-08-18 15:52:00,84.0,71.0,29.73,SSW,208,9.0,12.0,65,0.00,,,0.00,,2013-08-18 20:52:00,
2013-08-18 16:11:00,84.0,71.0,29.73,SW,236,8.0,15.0,65,0.00,,,0.00,,2013-08-18 21:11:00,
2013-08-18 16:21:00,85.0,72.0,29.73,WSW,243,8.0,13.0,65,0.00,,,0.00,,2013-08-18 21:21:00,
2013-08-18 16:53:00,85.0,72.0,29.71,SSW,203,8.0,18.0,65,0.00,,,0.00,,2013-08-18 21:53:00,
2013-08-18 17:13:00,85.0,72.0,29.70,SW,224,8.0,14.0,66,0.00,,,0.00,,2013-08-18 22:13:00,
2013-08-18 17:23:00,85.0,72.0,29.70,SW,221,9.0,13.0,65,0.00,,,0.00,,2013-08-18 22:23:00,
2013-08-18 17:42:00,85.0,72.0,29.70,WSW,241,6.0,13.0,66,0.00,,,0.00,,2013-08-18 22:42:00,
2013-08-18 17:52:00,86.0,72.0,29.70,WSW,239,10.0,13.0,63,0.00,,,0.00,,2013-08-18 22:52:00,
2013-08-18 18:11:00,86.0,73.0,29.70,SSW,196,6.0,14.0,65,0.00,,,0.00,,2013-08-18 23:11:00,
2013-08-18 18:22:00,85.0,72.0,29.70,SSW,195,6.0,11.0,66,0.00,,,0.00,,2013-08-18 23:22:00,
2013-08-18 18:42:00,85.0,72.0,29.70,SW,218,9.0,15.0,65,0.00,,,0.00,,2013-08-18 23:42:00,
2013-08-18 18:52:00,85.0,72.0,29.70,WSW,243,8.0,13.0,66,0.00,,,0.00,,2013-08-18 23:52:00,
2013-08-18 19:11:00,85.0,72.0,29.70,SW,226,8.0,14.0,66,0.00,,,0.00,,2013-08-19 00:11:00,
2013-08-18 19:21:00,84.0,72.0,29.70,WSW,249,9.0,17.0,67,0.00,,,0.00,,2013-08-19 00:21:00,
2013-08-18 19:42:00,84.0,72.0,29.69,SW,222,5.0,11.0,68,0.00,,,0.00,,2013-08-19 00:42:00,
2013-08-18 19:52:00,83.0,72.0,29.70,SW,225,4.0,6.0,70,0.00,,,0.00,,2013-08-19 00:52:00,
2013-08-18 20:11:00,82.0,72.0,29.70,WSW,247,4.0,5.0,71,0.00,,,0.00,,2013-08-19 01:11:00,
2013-08-18 20:22:00,83.0,72.0,29.70,WNW,290,4.0,6.0,70,0.00,,,0.00,,2013-08-19 01:22:00,
2013-08-18 20:42:00,82.0,71.0,29.69,West,276,1.0,3.0,70,0.00,,,0.00,,2013-08-19 01:42:00,
2013-08-18 20:52:00,80.0,69.0,29.70,WNW,285,0.0,2.0,70,0.00,,,0.00,,2013-08-19 01:52:00,
2013-08-18 21:11:00,80.0,70.0,29.71,WNW,302,1.0,3.0,71,0.00,,,0.00,,2013-08-19 02:11:00,
2013-08-18 21:21:00,79.0,69.0,29.72,WNW,302,0.0,2.0,72,0.00,,,0.00,,2013-08-19 02:21:00,
2013-08-18 21:42:00,79.0,70.0,29.73,NW,325,1.0,4.0,75,0.00,,,0.00,,2013-08-19 02:42:00,
2013-08-18 21:52:00,79.0,71.0,29.74,NNE,13,3.0,5.0,77,0.00,,,0.00,,2013-08-19 02:52:00,
2013-08-18 22:11:00,78.0,71.0,29.75,NE,48,0.0,5.0,79,0.00,,,0.00,,2013-08-19 03:11:00,
2013-08-18 22:21:00,78.0,72.0,29.75,East,81,1.0,5.0,81,0.00,,,0.00,,2013-08-19 03:21:00,
2013-08-18 22:42:00,77.0,71.0,29.75,East,81,1.0,3.0,81,0.00,,,0.00,,2013-08-19 03:42:00,
2013-08-18 22:53:00,76.0,70.0,29.75,ENE,72,0.0,2.0,82,0.00,,,0.00,,2013-08-19 03:53:00,
2013-08-18 23:12:00,76.0,71.0,29.75,ENE,72,0.0,2.0,85,0.00,,,0.00,,2013-08-19 04:12:00,
2013-08-18 23:23:00,75.0,71.0,29.75,SW,226,0.0,2.0,86,0.00,,,0.00,,2013-08-19 04:23:00,
2013-08-18 23:42:00,74.0,70.0,29.75,WSW,238,0.0,1.0,88,0.00,,,0.00,,2013-08-19 04:42:00,
2013-08-18 23:53:00,73.0,70.0,29.75,WSW,250,0.0,2.0,89,0.00,,,0.00,,2013-08-19 04:53:00,